Satellite: PO-28
Catalog number: 22829
Epoch time:      08137.47894491
Element set:    0946
Inclination:      098.3619 deg
RA of node:       100.7280 deg
Eccentricity:    0.0009367
Arg of perigee:   328.8841 deg
Mean anomaly:     031.1780 deg
Mean motion:   14.30189106 rev/day
Decay rate:        5.1e-07 rev/day^2
Epoch rev:           76359
Checksum:              330

Satellite: GO-32
Catalog number: 25397
Epoch time:      08137.75359080
Element set:    0602
Inclination:      098.3660 deg
RA of node:       174.4653 deg
Eccentricity:    0.0001115
Arg of perigee:   022.0942 deg
Mean anomaly:     338.0279 deg
Mean motion:   14.23143009 rev/day
Decay rate:       -4.3e-07 rev/day^2
Epoch rev:           51174
Checksum:              280

Satellite: MO-46
Catalog number: 26548
Epoch time:      08137.68087697
Element set:    0100
Inclination:      064.5575 deg
RA of node:       227.7634 deg
Eccentricity:    0.0026482
Arg of perigee:   328.5131 deg
Mean anomaly:     031.4391 deg
Mean motion:   14.83259576 rev/day
Decay rate:       -2.8e-07 rev/day^2
Epoch rev:           41314
Checksum:              320

Satellite: NO-44
Catalog number: 26931
Epoch time:      08138.64137408
Element set:     880
Inclination:      067.0543 deg
RA of node:       003.3473 deg
Eccentricity:    0.0006324
Arg of perigee:   278.5961 deg
Mean anomaly:     081.4448 deg
Mean motion:   14.29522591 rev/day
Decay rate:        4.3e-07 rev/day^2
Epoch rev:           34604
Checksum:              300

Satellite: SO-50
Catalog number: 27607
Epoch time:      08138.48881343
Element set:     604
Inclination:      064.5560 deg
RA of node:       146.8696 deg
Eccentricity:    0.0084880
Arg of perigee:   285.3462 deg
Mean anomaly:     073.8265 deg
Mean motion:   14.71354839 rev/day
Decay rate:        6.9e-07 rev/day^2
Epoch rev:           29045
Checksum:              342

Satellite: CO-55
Catalog number: 27844
Epoch time:      08137.53040346
Element set:    0307
Inclination:      098.7153 deg
RA of node:       146.2377 deg
Eccentricity:    0.0009265
Arg of perigee:   203.5960 deg
Mean anomaly:     156.4786 deg
Mean motion:   14.20578827 rev/day
Decay rate:        3.1e-07 rev/day^2
Epoch rev:           25294
Checksum:              317

Satellite: CO-57
Catalog number: 27848
Epoch time:      08138.58087856
Element set:     258
Inclination:      098.7156 deg
RA of node:       146.3751 deg
Eccentricity:    0.0009061
Arg of perigee:   205.9124 deg
Mean anomaly:     154.1597 deg
Mean motion:   14.20387611 rev/day
Decay rate:        4.0e-08 rev/day^2
Epoch rev:           25306
Checksum:              322

Satellite: AO-51
Catalog number: 28375
Epoch time:      08137.79350092
Element set:    0101
Inclination:      098.0734 deg
RA of node:       164.1271 deg
Eccentricity:    0.0083002
Arg of perigee:   248.4368 deg
Mean anomaly:     110.7965 deg
Mean motion:   14.40607268 rev/day
Decay rate:        1.5e-07 rev/day^2
Epoch rev:           20388
Checksum:              293

Satellite: CO-56
Catalog number: 28941
Epoch time:      08138.72740753
Element set:      63
Inclination:      098.1059 deg
RA of node:       245.2952 deg
Eccentricity:    0.0172322
Arg of perigee:   151.7410 deg
Mean anomaly:     209.3362 deg
Mean motion:   15.55455645 rev/day
Decay rate:     3.5251e-04 rev/day^2
Epoch rev:           12530
Checksum:              301

Satellite: CP4
Catalog number: 31122
Epoch time:      08137.87502889
Element set:     338
Inclination:      098.0440 deg
RA of node:       204.6262 deg
Eccentricity:    0.0087019
Arg of perigee:   066.9494 deg
Mean anomaly:     294.0756 deg
Mean motion:   14.55124562 rev/day
Decay rate:       5.53e-06 rev/day^2
Epoch rev:            5752
Checksum:              312

Satellite: CP3
Catalog number: 31128
Epoch time:      08137.63508669
Element set:    0334
Inclination:      098.0415 deg
RA of node:       202.4058 deg
Eccentricity:    0.0104098
Arg of perigee:   072.7305 deg
Mean anomaly:     288.5253 deg
Mean motion:   14.51944866 rev/day
Decay rate:       -4.6e-07 rev/day^2
Epoch rev:           05735
Checksum:              306

Satellite: LIBERT
Catalog number: 31129
Epoch time:      08138.16248882
Element set:     970
Inclination:      098.0402 deg
RA of node:       202.9486 deg
Eccentricity:    0.0103714
Arg of perigee:   070.9141 deg
Mean anomaly:     290.3226 deg
Mean motion:   14.52035632 rev/day
Decay rate:       3.40e-06 rev/day^2
Epoch rev:            5741
Checksum:              271

/EX
SB KEPS @ AMSAT  $ORB08138.W
Orbital Elements  08138.WEATHER

HR AMSAT ORBITAL ELEMENTS FOR WEATHER SATELLITES
FROM WA5QGD FORT WORTH,TX May 17, 2008
Send Subscribe/unsubscribe to KEPS at 
http://www.amsat.org/mailman/listinfo/keps
BID: ORB08138.W
TO ALL RADIO AMATEURS BT

Satellite: NOAA-10
Catalog number: 16969
Epoch time:      08137.60998752
Element set:    0123
Inclination:      098.7240 deg
RA of node:       159.6423 deg
Eccentricity:    0.0011252
Arg of perigee:   273.6728 deg
Mean anomaly:     086.3170 deg
Mean motion:   14.27358395 rev/day
Decay rate:      -1.42e-06 rev/day^2
Epoch rev:           12693
Checksum:              320

